Regional Weather Roundup
Issued by NWS

Home | Current Version | Previous Version | Text Only | Print | Product List | Glossary Off
Versions: 1 2 3 4 5 6 7 8 9 10 11 12 13 14 15 16 17 18 19 20 21 22 23 24 25 26 27 28 29 30 31 32 33 34 35 36 37 38 39 40 41 42 43 44 45 46 47 48 49 50

000
ASUS45 KBOU 310007
RWRCO

WEATHER ROUNDUP FOR COLORADO
NATIONAL WEATHER SERVICE DENVER/BOULDER CO
600 PM MDT SUN AUG 30 2015

NOTE: "FAIR" INDICATES FEW OR NO CLOUDS BELOW 12000 FEET WITH NO
SIGNIFICANT WEATHER AND/OR OBSTRUCTIONS TO VISIBILITY.

COZ001>005-013-030-031-310100-
...NORTHWEST COLORADO...

CITY           SKY/WX    TMP DP  RH WIND       PRES   REMARKS
CRAIG          CLOUDY    73  51  46 MISG      30.14R
HAYDEN         NOT AVBL
MEEKER         LGT RAIN  69  50  50 NW14      30.16R
MOUNT WERNER   NOT AVBL
STEAMBOAT SPGS CLOUDY    66  52  59 N8        30.18R
WALDEN         CLOUDY    70  34  26 S15G21    30.25S
$$

COZ006>008-011-310100-
...WEST CENTRAL VALLEYS...

CITY           SKY/WX    TMP DP  RH WIND       PRES   REMARKS
GRAND JUNCTION CLOUDY    84  47  27 NW10      29.97S
MONTROSE       PTSUNNY   75  54  47 SE9       30.10F
EAGLE          NOT AVBL
RIFLE          PTSUNNY   83  45  26 S18G29    30.04S
DELTA          RAIN      81  51  35 NE13      30.05F
NUCLA          PTSUNNY   86  34  15 SW13G18   30.11S
$$

COZ017>023-064>068-310100-
...SOUTHWEST COLORADO...

CITY           SKY/WX    TMP DP  RH WIND       PRES   REMARKS
DURANGO        PTSUNNY   79  44  28 SW14      30.17F
CORTEZ         SUNNY     80  47  31 S18       30.12S
PAGOSA SPRINGS PTSUNNY   80  36  20 NW7       30.25S
TELLURIDE      PTSUNNY   67  45  45 CALM      30.38S
WOLF CREEK PAS MOSUNNY   59  36  41 SW16      30.62S
$$

COZ009-010-012-014-032>034-037-058>063-310100-
...CENTRAL COLORADO...

CITY           SKY/WX    TMP DP  RH WIND       PRES   REMARKS
ASPEN          CLOUDY    73  43  33 N12       30.24R
BUENA VISTA    LGT RAIN  70  41  34 W18G40    30.23R
COPPER MTN     CLOUDY    59  34  38 W21G28    30.59S
BERTHOUD PASS  PTSUNNY   55  43  62 MISG      30.64R
COTTONWOOD PAS LGT RAIN  70  28  21 S14       30.40S
GUNNISON       PTSUNNY   72  39  30 W7        30.30S
KREMMLING      PTSUNNY   77  32  19 N5        30.19F
LEADVILLE      PTSUNNY   66  34  30 N12       30.39R
MONARCH PASS   PTSUNNY   55  37  50 W24G30    30.70R
SALIDA         PTSUNNY   80  36  20 S17G28    30.27R
SUNLIGHT       PTSUNNY   61  45  55 CALM      30.51S THUNDER
WILKERSON PASS MOSUNNY   66  25  20 CALM      30.54S
$$

COZ069>075-310100-
...SAN LUIS VALLEY/SANGRE DE CRISTO MOUNTAINS...

CITY           SKY/WX    TMP DP  RH WIND       PRES   REMARKS
ALAMOSA        MOSUNNY   74  42  31 NW20      30.23S
LA VETA PASS   MOSUNNY   70  32  24 SW5       30.44F
SAGUACHE       PTSUNNY   73  39  29 NW8       30.28S
$$

COZ035-036-038>040-310100-
...NORTHERN COLORADO FRONT RANGE...

CITY           SKY/WX    TMP DP  RH WIND       PRES   REMARKS
DENVER INTL AP MOSUNNY   93  30  10 SE5       29.97F
DMNS CITY PARK   N/A     91  33  13 SE8       29.97S
AURORA         MOSUNNY   91  33  13 S5        30.00F
FRONT RANGE AP NOT AVBL
ERIE MUNI ARPT MOSUNNY   94  29  10 S7        29.94S
BOULDER MUN AP MOSUNNY   88  37  16 SE5       29.95S
CENTENNIAL     MOSUNNY   89  34  14 SE8       30.02F
BROOMFIELD     MOSUNNY   91  36  14 SE8       29.99F
FORT COLLINS   MOSUNNY   93  37  14 SE8G16      N/A
LONGMONT       MOSUNNY   93  35  13 SE3       29.95S
$$

COZ041-046-047-076>085-087-088-310100-
...PIKES PEAK/PALMER DIVIDE AND SOUTHERN FOOTHILLS...

CITY           SKY/WX    TMP DP  RH WIND       PRES   REMARKS
COLO. SPRINGS  MOSUNNY   88  34  14 SE14      30.08S
A. F. ACADEMY  MOSUNNY   82  37  19 SE12      30.09F
ELLICOTT       NOT AVBL
FALCON         SUNNY     82  37  19 MISG      30.15F
FORT CARSON    MOSUNNY   88  40  18 SE14      30.04S
LIMON          SUNNY     87  40  19 S9        30.02F
MONUMENT HILL  SUNNY     81  32  17 S9        30.14F
TRINIDAD       MOSUNNY   90  37  15 E7        30.05F
$$

COZ042>045-048>051-090-091-310100-
...NORTHEAST COLORADO...

CITY           SKY/WX    TMP DP  RH WIND       PRES   REMARKS
GREELEY ARPT   SUNNY     93  41  16 E5        29.92S
AKRON          SUNNY     93  41  16 S15       29.94F
BURLINGTON     SUNNY     86  46  24 S20G26    29.98F
WRAY           CLOUDY    94  41  16 S16G23    29.92S
STERLING       SUNNY     95  45  17 S6        29.86S
HOLYOKE        SUNNY     91  46  21 S16G25    29.90S
FORT MORGAN    SUNNY     93  37  14 SE8       29.92F
$$

COZ086-089-092>099-310100-
...SOUTHEAST COLORADO...

CITY           SKY/WX    TMP DP  RH WIND       PRES   REMARKS
PUEBLO         SUNNY     95  40  14 SE12      29.93F
LA JUNTA       SUNNY     96  43  16 E12       29.94F
LAMAR          NOT AVBL
SPRINGFIELD    NOT AVBL
$$



USA.gov is the U.S. government's official web portal to all federal, state and local government web resources and services.